Find Local Weather

World > North America > United States > North Carolina

Wilders Grove, North Carolina Regional Weather

Lat: 35.80N, Lon: 78.56W
Wx Zone: NCZ041
Warning FLW WEATHER ALERT - (More Info. Click Here) Warning
Feedback

Wilders Grove, NC Regional Weather

Expires:201905212200;;241657
ASUS42 KRAH 212110
RWRRAH
NORTH CAROLINA WEATHER ROUNDUP
NATIONAL WEATHER SERVICE RALEIGH NC
500 PM EDT TUE MAY 21 2019

NOTE: "FAIR" INDICATES FEW OR NO CLOUDS BELOW 12,000 FEET WITH NO
SIGNIFICANT WEATHER AND/OR OBSTRUCTIONS TO VISIBILITY.


NCZ021-022-025-041-071-084-088-212200-
CENTRAL NORTH CAROLINA
  
CITY           SKY/WX    TMP DP  RH WIND       PRES   REMARKS
CHARLOTTE      FAIR      87  57  35 CALM      29.96S                  
GREENSBORO     FAIR      84  53  34 S5        29.96F                  
WINSTON-SALEM  FAIR      86  50  28 S6        29.97F                  
RALEIGH-DURHAM FAIR      85  54  34 E6        29.96S                  
FORT BRAGG     FAIR      89  57  33 NW7       29.92F                  
FAYETTEVILLE   FAIR      89  60  37 SE7       29.92F                  
BURLINGTON     FAIR      87  50  27 S6        29.96S                  
ROXBORO        FAIR      81  50  34 N7        29.99S                  
HENDERSON      FAIR      79  55  43 N5        29.98R                  
LOUISBURG      NOT AVBL                                               
LAURINBURG     FAIR      91  58  32 NE6       29.93F                  
$$
 

SKY/WX - Weather  TMP - Temperature  DP - Dew Point  RH - Relative Humidity
WIND - Wind Direction/Speed PRES - Barometric Pressure VSB - Visibility
WCI - Wind Chill Index E13G22 Wind - East Wind 13 mph/Gusts of 22 mph